Year,Month,Day,Hour,Minute,Value (Times are PST for temperature in C)
2010,05,06,00,00,5.60
2010,05,06,00,01,5.50
2010,05,06,00,02,5.50
2010,05,06,00,03,5.40
2010,05,06,00,04,5.40
2010,05,06,00,05,5.40
2010,05,06,00,06,5.40
2010,05,06,00,07,5.30
2010,05,06,00,08,5.30
2010,05,06,00,09,5.30
2010,05,06,00,10,5.30
2010,05,06,00,11,5.30
2010,05,06,00,12,5.30
2010,05,06,00,13,5.20
2010,05,06,00,14,5.20
2010,05,06,00,15,5.20
2010,05,06,00,16,5.20
2010,05,06,00,17,5.20
2010,05,06,00,18,5.20
2010,05,06,00,19,5.20
2010,05,06,00,20,5.20
2010,05,06,00,21,5.20
2010,05,06,00,22,5.30
2010,05,06,00,23,5.30
2010,05,06,00,24,5.30
2010,05,06,00,25,5.30
2010,05,06,00,26,5.30
2010,05,06,00,27,5.30
2010,05,06,00,28,5.30
2010,05,06,00,29,5.30
2010,05,06,00,30,5.30
2010,05,06,00,31,5.30
2010,05,06,00,32,5.30
2010,05,06,00,33,5.30
2010,05,06,00,34,5.30
2010,05,06,00,35,5.30
2010,05,06,00,36,5.20
2010,05,06,00,37,5.20
2010,05,06,00,38,5.30
2010,05,06,00,39,5.30
2010,05,06,00,40,5.30
2010,05,06,00,41,5.30
2010,05,06,00,42,5.30
2010,05,06,00,43,5.20
2010,05,06,00,44,5.20
2010,05,06,00,45,5.10
2010,05,06,00,46,5.10
2010,05,06,00,47,5.10
2010,05,06,00,48,5.00
2010,05,06,00,49,5.00
2010,05,06,00,50,4.90
2010,05,06,00,51,4.90
2010,05,06,00,52,4.90
2010,05,06,00,53,5.00
2010,05,06,00,54,5.10
2010,05,06,00,55,5.10
2010,05,06,00,56,5.10
2010,05,06,00,57,5.20
2010,05,06,00,58,5.20
2010,05,06,00,59,5.20
2010,05,06,01,00,5.30
2010,05,06,01,01,5.30
2010,05,06,01,02,5.30
2010,05,06,01,03,5.30
2010,05,06,01,04,5.30
2010,05,06,01,05,5.30
2010,05,06,01,06,5.30
2010,05,06,01,07,5.30
2010,05,06,01,08,5.30
2010,05,06,01,09,5.30
2010,05,06,01,10,5.30
2010,05,06,01,11,5.30
2010,05,06,01,12,5.30
2010,05,06,01,13,5.30
2010,05,06,01,14,5.30
2010,05,06,01,15,5.30
2010,05,06,01,16,5.30
2010,05,06,01,17,5.30
2010,05,06,01,18,5.30
2010,05,06,01,19,5.30
2010,05,06,01,20,5.30
2010,05,06,01,21,5.30
2010,05,06,01,22,5.30
2010,05,06,01,23,5.30
2010,05,06,01,24,5.30
2010,05,06,01,25,5.30
2010,05,06,01,26,5.30
2010,05,06,01,27,5.30
2010,05,06,01,28,5.30
2010,05,06,01,29,5.30
2010,05,06,01,30,5.20
2010,05,06,01,31,5.20
2010,05,06,01,32,5.20
2010,05,06,01,33,5.20
2010,05,06,01,34,5.10
2010,05,06,01,35,5.10
2010,05,06,01,36,5.10
2010,05,06,01,37,5.10
2010,05,06,01,38,5.10
2010,05,06,01,39,5.10
2010,05,06,01,40,5.00
2010,05,06,01,41,5.00
2010,05,06,01,42,5.00
2010,05,06,01,43,5.00
2010,05,06,01,44,5.00
2010,05,06,01,45,4.90
2010,05,06,01,46,4.90
2010,05,06,01,47,4.90
2010,05,06,01,48,4.90
2010,05,06,01,49,4.80
2010,05,06,01,50,4.80
2010,05,06,01,51,4.80
2010,05,06,01,52,4.70
2010,05,06,01,53,4.70
2010,05,06,01,54,4.70
2010,05,06,01,55,4.70
2010,05,06,01,56,4.60
2010,05,06,01,57,4.60
2010,05,06,01,58,4.60
2010,05,06,01,59,4.50
2010,05,06,02,00,4.50
2010,05,06,02,01,4.40
2010,05,06,02,02,4.40
2010,05,06,02,03,4.40
2010,05,06,02,04,4.40
2010,05,06,02,05,4.30
2010,05,06,02,06,4.30
2010,05,06,02,07,4.30
2010,05,06,02,08,4.30
2010,05,06,02,09,4.20
2010,05,06,02,10,4.20
2010,05,06,02,11,4.20
2010,05,06,02,12,4.20
2010,05,06,02,13,4.20
2010,05,06,02,14,4.10
2010,05,06,02,15,4.10
2010,05,06,02,16,4.10
2010,05,06,02,17,4.10
2010,05,06,02,18,4.10
2010,05,06,02,19,4.00
2010,05,06,02,20,4.00
2010,05,06,02,21,4.00
2010,05,06,02,22,3.90
2010,05,06,02,23,3.90
2010,05,06,02,24,3.90
2010,05,06,02,25,3.90
2010,05,06,02,26,3.90
2010,05,06,02,27,3.90
2010,05,06,02,28,3.90
2010,05,06,02,29,3.90
2010,05,06,02,30,3.80
2010,05,06,02,31,3.80
2010,05,06,02,32,3.80
2010,05,06,02,33,3.80
2010,05,06,02,34,3.80
2010,05,06,02,35,3.80
2010,05,06,02,36,3.80
2010,05,06,02,37,3.80
2010,05,06,02,38,3.80
2010,05,06,02,39,3.80
2010,05,06,02,40,3.80
2010,05,06,02,41,3.80
2010,05,06,02,42,3.80
2010,05,06,02,43,3.80
2010,05,06,02,44,3.70
2010,05,06,02,45,3.70
2010,05,06,02,46,3.70
2010,05,06,02,47,3.70
2010,05,06,02,48,3.70
2010,05,06,02,49,3.70
2010,05,06,02,50,3.70
2010,05,06,02,51,3.70
2010,05,06,02,52,3.70
2010,05,06,02,53,3.70
2010,05,06,02,54,3.70
2010,05,06,02,55,3.70
2010,05,06,02,56,3.60
2010,05,06,02,57,3.60
2010,05,06,02,58,3.60
2010,05,06,02,59,3.60
2010,05,06,03,00,3.60
2010,05,06,03,01,3.60
2010,05,06,03,02,3.60
2010,05,06,03,03,3.60
2010,05,06,03,04,3.60
2010,05,06,03,05,3.60
2010,05,06,03,06,3.60
2010,05,06,03,07,3.60
2010,05,06,03,08,3.60
2010,05,06,03,09,3.50
2010,05,06,03,10,3.50
2010,05,06,03,11,3.50
2010,05,06,03,12,3.50
2010,05,06,03,13,3.50
2010,05,06,03,14,3.50
2010,05,06,03,15,3.40
2010,05,06,03,16,3.40
2010,05,06,03,17,3.40
2010,05,06,03,18,3.40
2010,05,06,03,19,3.40
2010,05,06,03,20,3.40
2010,05,06,03,21,3.40
2010,05,06,03,22,3.40
2010,05,06,03,23,3.40
2010,05,06,03,24,3.40
2010,05,06,03,25,3.40
2010,05,06,03,26,3.40
2010,05,06,03,27,3.30
2010,05,06,03,28,3.30
2010,05,06,03,29,3.30
2010,05,06,03,30,3.30
2010,05,06,03,31,3.40
2010,05,06,03,32,3.40
2010,05,06,03,33,3.40
2010,05,06,03,34,3.40
2010,05,06,03,35,3.40
2010,05,06,03,36,3.40
2010,05,06,03,37,3.40
2010,05,06,03,38,3.40
2010,05,06,03,39,3.40
2010,05,06,03,40,3.40
2010,05,06,03,41,3.40
2010,05,06,03,42,3.40
2010,05,06,03,43,3.40
2010,05,06,03,44,3.40
2010,05,06,03,45,3.40
2010,05,06,03,46,3.40
2010,05,06,03,47,3.40
2010,05,06,03,48,3.40
2010,05,06,03,49,3.40
2010,05,06,03,50,3.40
2010,05,06,03,51,3.40
2010,05,06,03,52,3.40
2010,05,06,03,53,3.40
2010,05,06,03,54,3.30
2010,05,06,03,55,3.40
2010,05,06,03,56,3.30
2010,05,06,03,57,3.30
2010,05,06,03,58,3.30
2010,05,06,03,59,3.30
2010,05,06,04,00,3.30
2010,05,06,04,01,3.30
2010,05,06,04,02,3.30
2010,05,06,04,03,3.30
2010,05,06,04,04,3.30
2010,05,06,04,05,3.40
2010,05,06,04,06,3.40
2010,05,06,04,07,3.40
2010,05,06,04,08,3.40
2010,05,06,04,09,3.40
2010,05,06,04,10,3.40
2010,05,06,04,11,3.40
2010,05,06,04,12,3.40
2010,05,06,04,13,3.40
2010,05,06,04,14,3.40
2010,05,06,04,15,3.40
2010,05,06,04,16,3.30
2010,05,06,04,17,3.30
2010,05,06,04,18,3.30
2010,05,06,04,19,3.30
2010,05,06,04,20,3.30
2010,05,06,04,21,3.30
2010,05,06,04,22,3.30
2010,05,06,04,23,3.30
2010,05,06,04,24,3.20
2010,05,06,04,25,3.20
2010,05,06,04,26,3.20
2010,05,06,04,27,3.20
2010,05,06,04,28,3.20
2010,05,06,04,29,3.20
2010,05,06,04,30,3.20
2010,05,06,04,31,3.20
2010,05,06,04,32,3.20
2010,05,06,04,33,3.10
2010,05,06,04,34,3.10
2010,05,06,04,35,3.10
2010,05,06,04,36,3.10
2010,05,06,04,37,3.10
2010,05,06,04,38,3.10
2010,05,06,04,39,3.10
2010,05,06,04,40,3.00
2010,05,06,04,41,3.00
2010,05,06,04,42,3.00
2010,05,06,04,43,3.00
2010,05,06,04,44,3.00
2010,05,06,04,45,3.00
2010,05,06,04,46,3.00
2010,05,06,04,47,3.00
2010,05,06,04,48,3.00
2010,05,06,04,49,3.00
2010,05,06,04,50,3.00
2010,05,06,04,51,3.00
2010,05,06,04,52,3.00
2010,05,06,04,53,2.90
2010,05,06,04,54,2.90
2010,05,06,04,55,2.90
2010,05,06,04,56,2.90
2010,05,06,04,57,2.90
2010,05,06,04,58,2.80
2010,05,06,04,59,2.80
2010,05,06,05,00,2.80
2010,05,06,05,01,2.90
2010,05,06,05,02,2.90
2010,05,06,05,03,2.90
2010,05,06,05,04,2.90
2010,05,06,05,05,2.90
2010,05,06,05,06,2.90
2010,05,06,05,07,2.90
2010,05,06,05,08,2.90
2010,05,06,05,09,2.90
2010,05,06,05,10,2.80
2010,05,06,05,11,2.80
2010,05,06,05,12,2.80
2010,05,06,05,13,2.80
2010,05,06,05,14,2.80
2010,05,06,05,15,2.80
2010,05,06,05,16,2.80
2010,05,06,05,17,2.80
2010,05,06,05,18,2.80
2010,05,06,05,19,2.80
2010,05,06,05,20,2.70
2010,05,06,05,21,2.70
2010,05,06,05,22,2.80
2010,05,06,05,23,2.80
2010,05,06,05,24,2.80
2010,05,06,05,25,2.90
2010,05,06,05,26,2.90
2010,05,06,05,27,2.90
2010,05,06,05,28,3.00
2010,05,06,05,29,3.00
2010,05,06,05,30,3.00
2010,05,06,05,31,3.10
2010,05,06,05,32,3.10
2010,05,06,05,33,3.10
2010,05,06,05,34,3.20
2010,05,06,05,35,3.20
2010,05,06,05,36,3.30
2010,05,06,05,37,3.30
2010,05,06,05,38,3.30
2010,05,06,05,39,3.30
2010,05,06,05,40,3.30
2010,05,06,05,41,3.30
2010,05,06,05,42,3.30
2010,05,06,05,43,3.30
2010,05,06,05,44,3.30
2010,05,06,05,45,3.30
2010,05,06,05,46,3.30
2010,05,06,05,47,3.30
2010,05,06,05,48,3.30
2010,05,06,05,49,3.30
2010,05,06,05,50,3.30
2010,05,06,05,51,3.30
2010,05,06,05,52,3.30
2010,05,06,05,53,3.30
2010,05,06,05,54,3.30
2010,05,06,05,55,3.30
2010,05,06,05,56,3.30
2010,05,06,05,57,3.30
2010,05,06,05,58,3.30
2010,05,06,05,59,3.30
2010,05,06,06,00,3.30
2010,05,06,06,01,3.30
2010,05,06,06,02,3.30
2010,05,06,06,03,3.40
2010,05,06,06,04,3.40
2010,05,06,06,05,3.50
2010,05,06,06,06,3.50
2010,05,06,06,07,3.60
2010,05,06,06,08,3.60
2010,05,06,06,09,3.70
2010,05,06,06,10,3.70
2010,05,06,06,11,3.70
2010,05,06,06,12,3.80
2010,05,06,06,13,3.80
2010,05,06,06,14,3.80
2010,05,06,06,15,3.80
2010,05,06,06,16,3.80
2010,05,06,06,17,3.80
2010,05,06,06,18,3.80
2010,05,06,06,19,3.70
2010,05,06,06,20,3.70
2010,05,06,06,21,3.70
2010,05,06,06,22,3.70
2010,05,06,06,23,3.60
2010,05,06,06,24,3.60
2010,05,06,06,25,3.60
2010,05,06,06,26,3.60
2010,05,06,06,27,3.60
2010,05,06,06,28,3.60
2010,05,06,06,29,3.70
2010,05,06,06,30,3.70
2010,05,06,06,31,3.80
2010,05,06,06,32,3.80
2010,05,06,06,33,3.80
2010,05,06,06,34,3.80
2010,05,06,06,35,3.90
2010,05,06,06,36,3.90
2010,05,06,06,37,3.90
2010,05,06,06,38,4.00
2010,05,06,06,39,4.10
2010,05,06,06,40,4.10
2010,05,06,06,41,4.20
2010,05,06,06,42,4.30
2010,05,06,06,43,4.30
2010,05,06,06,44,4.50
2010,05,06,06,45,4.50
2010,05,06,06,46,4.70
2010,05,06,06,47,4.70
2010,05,06,06,48,4.80
2010,05,06,06,49,4.90
2010,05,06,06,50,5.00
2010,05,06,06,51,5.10
2010,05,06,06,52,5.20
2010,05,06,06,53,5.20
2010,05,06,06,54,5.30
2010,05,06,06,55,5.40
2010,05,06,06,56,5.50
2010,05,06,06,57,5.60
2010,05,06,06,58,5.70
2010,05,06,06,59,5.80
2010,05,06,07,00,5.80
2010,05,06,07,01,5.80
2010,05,06,07,02,5.80
2010,05,06,07,03,5.80
2010,05,06,07,04,5.90
2010,05,06,07,05,5.90
2010,05,06,07,06,5.90
2010,05,06,07,07,5.90
2010,05,06,07,08,5.90
2010,05,06,07,09,5.90
2010,05,06,07,10,5.90
2010,05,06,07,11,5.90
2010,05,06,07,12,6.00
2010,05,06,07,13,6.00
2010,05,06,07,14,6.10
2010,05,06,07,15,6.10
2010,05,06,07,16,6.10
2010,05,06,07,17,6.20
2010,05,06,07,18,6.20
2010,05,06,07,19,6.20
2010,05,06,07,20,6.30
2010,05,06,07,21,6.30
2010,05,06,07,22,6.30
2010,05,06,07,23,6.30
2010,05,06,07,24,6.30
2010,05,06,07,25,6.40
2010,05,06,07,26,6.40
2010,05,06,07,27,6.40
2010,05,06,07,28,6.50
2010,05,06,07,29,6.50
2010,05,06,07,30,6.60
2010,05,06,07,31,6.60
2010,05,06,07,32,6.60
2010,05,06,07,33,6.60
2010,05,06,07,34,6.60
2010,05,06,07,35,6.60
2010,05,06,07,36,6.60
2010,05,06,07,37,6.50
2010,05,06,07,38,6.60
2010,05,06,07,39,6.50
2010,05,06,07,40,6.60
2010,05,06,07,41,6.60
2010,05,06,07,42,6.60
2010,05,06,07,43,6.60
2010,05,06,07,44,6.60
2010,05,06,07,45,6.60
2010,05,06,07,46,6.60
2010,05,06,07,47,6.60
2010,05,06,07,48,6.70
2010,05,06,07,49,6.70
2010,05,06,07,50,6.70
2010,05,06,07,51,6.70
2010,05,06,07,52,6.70
2010,05,06,07,53,6.80
2010,05,06,07,54,6.80
2010,05,06,07,55,6.80
2010,05,06,07,56,6.90
2010,05,06,07,57,6.90
2010,05,06,07,58,6.90
2010,05,06,07,59,6.90
2010,05,06,08,00,6.90
2010,05,06,08,01,6.90
2010,05,06,08,02,6.90
2010,05,06,08,03,6.90
2010,05,06,08,04,6.90
2010,05,06,08,05,6.90
2010,05,06,08,06,7.00
2010,05,06,08,07,7.00
2010,05,06,08,08,7.00
2010,05,06,08,09,7.10
2010,05,06,08,10,7.10
2010,05,06,08,11,7.20
2010,05,06,08,12,7.20
2010,05,06,08,13,7.20
2010,05,06,08,14,7.30
2010,05,06,08,15,7.30
2010,05,06,08,16,7.40
2010,05,06,08,17,7.60
2010,05,06,08,18,7.70
2010,05,06,08,19,7.80
2010,05,06,08,20,8.00
2010,05,06,08,21,8.10
2010,05,06,08,22,8.30
2010,05,06,08,23,8.40
2010,05,06,08,24,8.50
2010,05,06,08,25,8.60
2010,05,06,08,26,8.70
2010,05,06,08,27,8.70
2010,05,06,08,28,8.80
2010,05,06,08,29,8.80
2010,05,06,08,30,8.80
2010,05,06,08,31,8.90
2010,05,06,08,32,8.90
2010,05,06,08,33,9.00
2010,05,06,08,34,9.00
2010,05,06,08,35,9.00
2010,05,06,08,36,9.10
2010,05,06,08,37,9.10
2010,05,06,08,38,9.20
2010,05,06,08,39,9.30
2010,05,06,08,40,9.30
2010,05,06,08,41,9.40
2010,05,06,08,42,9.50
2010,05,06,08,43,9.60
2010,05,06,08,44,9.60
2010,05,06,08,45,9.80
2010,05,06,08,46,9.80
2010,05,06,08,47,9.90
2010,05,06,08,48,9.90
2010,05,06,08,49,10.10
2010,05,06,08,50,10.20
2010,05,06,08,51,10.20
2010,05,06,08,52,10.30
2010,05,06,08,53,10.30
2010,05,06,08,54,10.20
2010,05,06,08,55,10.10
2010,05,06,08,56,9.90
2010,05,06,08,57,9.80
2010,05,06,08,58,9.60
2010,05,06,08,59,9.60
2010,05,06,09,00,9.50
2010,05,06,09,01,9.40
2010,05,06,09,02,9.30
2010,05,06,09,03,9.20
2010,05,06,09,04,9.20
2010,05,06,09,05,9.10
2010,05,06,09,06,9.10
2010,05,06,09,07,9.00
2010,05,06,09,08,8.90
2010,05,06,09,09,8.90
2010,05,06,09,10,8.90
2010,05,06,09,11,8.90
2010,05,06,09,12,8.90
2010,05,06,09,13,9.00
2010,05,06,09,14,9.00
2010,05,06,09,15,9.00
2010,05,06,09,16,9.10
2010,05,06,09,17,9.10
2010,05,06,09,18,9.20
2010,05,06,09,19,9.20
2010,05,06,09,20,9.20
2010,05,06,09,21,9.30
2010,05,06,09,22,9.40
2010,05,06,09,23,9.50
2010,05,06,09,24,9.60
2010,05,06,09,25,9.60
2010,05,06,09,26,9.70
2010,05,06,09,27,9.90
2010,05,06,09,28,10.00
2010,05,06,09,29,10.10
2010,05,06,09,30,10.10
2010,05,06,09,31,10.00
2010,05,06,09,32,9.90
2010,05,06,09,33,9.90
2010,05,06,09,34,9.80
2010,05,06,09,35,9.80
2010,05,06,09,36,9.70
2010,05,06,09,37,9.60
2010,05,06,09,38,9.60
2010,05,06,09,39,9.60
2010,05,06,09,40,9.70
2010,05,06,09,41,9.80
2010,05,06,09,42,9.90
2010,05,06,09,43,10.00
2010,05,06,09,44,10.00
2010,05,06,09,45,10.00
2010,05,06,09,46,10.00
2010,05,06,09,47,10.00
2010,05,06,09,48,10.10
2010,05,06,09,49,10.10
2010,05,06,09,50,10.10
2010,05,06,09,51,10.20
2010,05,06,09,52,10.30
2010,05,06,09,53,10.30
2010,05,06,09,54,10.30
2010,05,06,09,55,10.30
2010,05,06,09,56,10.30
2010,05,06,09,57,10.30
2010,05,06,09,58,10.30
2010,05,06,09,59,10.40
2010,05,06,10,00,10.50
2010,05,06,10,01,10.50
2010,05,06,10,02,10.50
2010,05,06,10,03,10.50
2010,05,06,10,04,10.40
2010,05,06,10,05,10.40
2010,05,06,10,06,10.30
2010,05,06,10,07,10.40
2010,05,06,10,08,10.40
2010,05,06,10,09,10.40
2010,05,06,10,10,10.40
2010,05,06,10,11,10.40
2010,05,06,10,12,10.30
2010,05,06,10,13,10.30
2010,05,06,10,14,10.30
2010,05,06,10,15,10.30
2010,05,06,10,16,10.40
2010,05,06,10,17,10.40
2010,05,06,10,18,10.40
2010,05,06,10,19,10.40
2010,05,06,10,20,10.40
2010,05,06,10,21,10.30
2010,05,06,10,22,10.40
2010,05,06,10,23,10.40
2010,05,06,10,24,10.50
2010,05,06,10,25,10.60
2010,05,06,10,26,10.70
2010,05,06,10,27,10.70
2010,05,06,10,28,10.70
2010,05,06,10,29,10.70
2010,05,06,10,30,10.70
2010,05,06,10,31,10.70
2010,05,06,10,32,10.70
2010,05,06,10,33,10.60
2010,05,06,10,34,10.70
2010,05,06,10,35,10.70
2010,05,06,10,36,10.60
2010,05,06,10,37,10.60
2010,05,06,10,38,10.50
2010,05,06,10,39,10.50
2010,05,06,10,40,10.40
2010,05,06,10,41,10.30
2010,05,06,10,42,10.30
2010,05,06,10,43,10.30
2010,05,06,10,44,10.20
2010,05,06,10,45,10.20
2010,05,06,10,46,10.10
2010,05,06,10,47,10.10
2010,05,06,10,48,10.00
2010,05,06,10,49,9.90
2010,05,06,10,50,9.80
2010,05,06,10,51,9.70
2010,05,06,10,52,9.70
2010,05,06,10,53,9.70
2010,05,06,10,54,9.70
2010,05,06,10,55,9.70
2010,05,06,10,56,9.80
2010,05,06,10,57,9.90
2010,05,06,10,58,10.00
2010,05,06,10,59,10.00
2010,05,06,11,00,10.10
2010,05,06,11,01,10.10
2010,05,06,11,02,10.10
2010,05,06,11,03,10.10
2010,05,06,11,04,10.10
2010,05,06,11,05,10.10
2010,05,06,11,06,10.00
2010,05,06,11,07,10.00
2010,05,06,11,08,10.10
2010,05,06,11,09,10.00
2010,05,06,11,10,10.00
2010,05,06,11,11,10.00
2010,05,06,11,12,10.00
2010,05,06,11,13,10.00
2010,05,06,11,14,10.10
2010,05,06,11,15,10.10
2010,05,06,11,16,10.10
2010,05,06,11,17,10.10
2010,05,06,11,18,10.10
2010,05,06,11,19,10.10
2010,05,06,11,20,10.10
2010,05,06,11,21,10.20
2010,05,06,11,22,10.30
2010,05,06,11,23,10.40
2010,05,06,11,24,10.50
2010,05,06,11,25,10.50
2010,05,06,11,26,10.40
2010,05,06,11,27,10.40
2010,05,06,11,28,10.40
2010,05,06,11,29,10.40
2010,05,06,11,30,10.40
2010,05,06,11,31,10.30
2010,05,06,11,32,10.30
2010,05,06,11,33,10.20
2010,05,06,11,34,10.20
2010,05,06,11,35,10.20
2010,05,06,11,36,10.10
2010,05,06,11,37,10.00
2010,05,06,11,38,10.00
2010,05,06,11,39,9.90
2010,05,06,11,40,9.80
2010,05,06,11,41,9.80
2010,05,06,11,42,9.80
2010,05,06,11,43,10.00
2010,05,06,11,44,10.10
2010,05,06,11,45,10.20
2010,05,06,11,46,10.40
2010,05,06,11,47,10.50
2010,05,06,11,48,10.70
2010,05,06,11,49,10.80
2010,05,06,11,50,10.90
2010,05,06,11,51,10.90
2010,05,06,11,52,11.00
2010,05,06,11,53,11.00
2010,05,06,11,54,10.90
2010,05,06,11,55,10.90
2010,05,06,11,56,10.90
2010,05,06,11,57,10.90
2010,05,06,11,58,10.80
2010,05,06,11,59,10.80
2010,05,06,12,00,10.90
2010,05,06,12,01,11.00
2010,05,06,12,02,11.00
2010,05,06,12,03,11.00
2010,05,06,12,04,10.90
2010,05,06,12,05,10.70
2010,05,06,12,06,10.60
2010,05,06,12,07,10.60
2010,05,06,12,08,10.70
2010,05,06,12,09,10.80
2010,05,06,12,10,10.90
2010,05,06,12,11,11.00
2010,05,06,12,12,11.00
2010,05,06,12,13,11.10
2010,05,06,12,14,11.10
2010,05,06,12,15,11.20
2010,05,06,12,16,11.30
2010,05,06,12,17,11.40
2010,05,06,12,18,11.50
2010,05,06,12,19,11.60
2010,05,06,12,20,11.70
2010,05,06,12,21,11.70
2010,05,06,12,22,11.70
2010,05,06,12,23,11.80
2010,05,06,12,24,11.70
2010,05,06,12,25,11.80
2010,05,06,12,26,11.70
2010,05,06,12,27,11.50
2010,05,06,12,28,11.40
2010,05,06,12,29,11.40
2010,05,06,12,30,11.50
2010,05,06,12,31,11.60
2010,05,06,12,32,11.70
2010,05,06,12,33,11.60
2010,05,06,12,34,11.50
2010,05,06,12,35,11.50
2010,05,06,12,36,11.40
2010,05,06,12,37,11.20
2010,05,06,12,38,11.20
2010,05,06,12,39,11.30
2010,05,06,12,40,11.40
2010,05,06,12,41,11.60
2010,05,06,12,42,11.70
2010,05,06,12,43,11.80
2010,05,06,12,44,11.90
2010,05,06,12,45,12.10
2010,05,06,12,46,12.30
2010,05,06,12,47,12.40
2010,05,06,12,48,12.60
2010,05,06,12,49,12.80
2010,05,06,12,50,12.90
2010,05,06,12,51,12.90
2010,05,06,12,52,12.80
2010,05,06,12,53,12.80
2010,05,06,12,54,12.70
2010,05,06,12,55,12.70
2010,05,06,12,56,12.60
2010,05,06,12,57,12.50
2010,05,06,12,58,12.40
2010,05,06,12,59,12.30
2010,05,06,13,00,12.30
2010,05,06,13,01,12.20
2010,05,06,13,02,12.10
2010,05,06,13,03,12.00
2010,05,06,13,04,12.00
2010,05,06,13,05,11.90
2010,05,06,13,06,11.80
2010,05,06,13,07,11.70
2010,05,06,13,08,11.60
2010,05,06,13,09,11.50
2010,05,06,13,10,11.50
2010,05,06,13,11,11.60
2010,05,06,13,12,11.60
2010,05,06,13,13,11.70
2010,05,06,13,14,11.70
2010,05,06,13,15,11.80
2010,05,06,13,16,11.70
2010,05,06,13,17,11.70
2010,05,06,13,18,11.60
2010,05,06,13,19,11.50
2010,05,06,13,20,11.40
2010,05,06,13,21,11.40
2010,05,06,13,22,11.30
2010,05,06,13,23,11.40
2010,05,06,13,24,11.40
2010,05,06,13,25,11.40
2010,05,06,13,26,11.50
2010,05,06,13,27,11.60
2010,05,06,13,28,11.60
2010,05,06,13,29,11.60
2010,05,06,13,30,11.70
2010,05,06,13,31,11.80
2010,05,06,13,32,11.80
2010,05,06,13,33,11.70
2010,05,06,13,34,11.70
2010,05,06,13,35,11.70
2010,05,06,13,36,11.70
2010,05,06,13,37,11.70
2010,05,06,13,38,11.60
2010,05,06,13,39,11.60
2010,05,06,13,40,11.60
2010,05,06,13,41,11.60
2010,05,06,13,42,11.50
2010,05,06,13,43,11.40
2010,05,06,13,44,11.40
2010,05,06,13,45,11.50
2010,05,06,13,46,11.60
2010,05,06,13,47,11.60
2010,05,06,13,48,11.60
2010,05,06,13,49,11.60
2010,05,06,13,50,11.80
2010,05,06,13,51,12.00
2010,05,06,13,52,12.20
2010,05,06,13,53,12.30
2010,05,06,13,54,12.20
2010,05,06,13,55,12.10
2010,05,06,13,56,12.00
2010,05,06,13,57,11.90
2010,05,06,13,58,11.80
2010,05,06,13,59,11.70
2010,05,06,14,00,11.70
2010,05,06,14,01,11.80
2010,05,06,14,02,11.80
2010,05,06,14,03,11.70
2010,05,06,14,04,11.50
2010,05,06,14,05,11.40
2010,05,06,14,06,11.20
2010,05,06,14,07,11.20
2010,05,06,14,08,11.20
2010,05,06,14,09,11.30
2010,05,06,14,10,11.30
2010,05,06,14,11,11.40
2010,05,06,14,12,11.50
2010,05,06,14,13,11.50
2010,05,06,14,14,11.40
2010,05,06,14,15,11.30
2010,05,06,14,16,11.20
2010,05,06,14,17,11.10
2010,05,06,14,18,11.00
2010,05,06,14,19,10.90
2010,05,06,14,20,10.90
2010,05,06,14,21,10.80
2010,05,06,14,22,10.80
2010,05,06,14,23,10.80
2010,05,06,14,24,10.80
2010,05,06,14,25,10.80
2010,05,06,14,26,10.70
2010,05,06,14,27,10.70
2010,05,06,14,28,10.70
2010,05,06,14,29,10.70
2010,05,06,14,30,10.60
2010,05,06,14,31,10.60
2010,05,06,14,32,10.60
2010,05,06,14,33,10.50
2010,05,06,14,34,10.50
2010,05,06,14,35,10.50
2010,05,06,14,36,10.50
2010,05,06,14,37,10.60
2010,05,06,14,38,10.50
2010,05,06,14,39,10.50
2010,05,06,14,40,10.50
2010,05,06,14,41,10.50
2010,05,06,14,42,10.50
2010,05,06,14,43,10.50
2010,05,06,14,44,10.60
2010,05,06,14,45,10.60
2010,05,06,14,46,10.60
2010,05,06,14,47,10.70
2010,05,06,14,48,10.80
2010,05,06,14,49,10.80
2010,05,06,14,50,10.90
2010,05,06,14,51,11.10
2010,05,06,14,52,11.20
2010,05,06,14,53,11.40
2010,05,06,14,54,11.40
2010,05,06,14,55,11.50
2010,05,06,14,56,11.50
2010,05,06,14,57,11.60
2010,05,06,14,58,11.60
2010,05,06,14,59,11.70
2010,05,06,15,00,11.70
2010,05,06,15,01,11.80
2010,05,06,15,02,11.70
2010,05,06,15,03,11.70
2010,05,06,15,04,11.60
2010,05,06,15,05,11.50
2010,05,06,15,06,11.40
2010,05,06,15,07,11.30
2010,05,06,15,08,11.20
2010,05,06,15,09,11.20
2010,05,06,15,10,11.20
2010,05,06,15,11,11.20
2010,05,06,15,12,11.20
2010,05,06,15,13,11.20
2010,05,06,15,14,11.20
2010,05,06,15,15,11.20
2010,05,06,15,16,11.20
2010,05,06,15,17,11.20
2010,05,06,15,18,11.30
2010,05,06,15,19,11.30
2010,05,06,15,20,11.20
2010,05,06,15,21,11.30
2010,05,06,15,22,11.50
2010,05,06,15,23,11.50
2010,05,06,15,24,11.50
2010,05,06,15,25,11.60
2010,05,06,15,26,11.60
2010,05,06,15,27,11.60
2010,05,06,15,28,11.60
2010,05,06,15,29,11.60
2010,05,06,15,30,11.70
2010,05,06,15,31,11.70
2010,05,06,15,32,11.70
2010,05,06,15,33,11.80
2010,05,06,15,34,11.90
2010,05,06,15,35,11.90
2010,05,06,15,36,11.90
2010,05,06,15,37,12.00
2010,05,06,15,38,12.00
2010,05,06,15,39,12.00
2010,05,06,15,40,12.10
2010,05,06,15,41,12.20
2010,05,06,15,42,12.30
2010,05,06,15,43,12.20
2010,05,06,15,44,12.20
2010,05,06,15,45,12.30
2010,05,06,15,46,12.40
2010,05,06,15,47,12.40
2010,05,06,15,48,12.40
2010,05,06,15,49,12.40
2010,05,06,15,50,12.40
2010,05,06,15,51,12.30
2010,05,06,15,52,12.20
2010,05,06,15,53,12.10
2010,05,06,15,54,12.00
2010,05,06,15,55,11.90
2010,05,06,15,56,11.90
2010,05,06,15,57,11.90
2010,05,06,15,58,12.00
2010,05,06,15,59,12.10
2010,05,06,16,00,12.20
2010,05,06,16,01,12.30
2010,05,06,16,02,12.40
2010,05,06,16,03,12.50
2010,05,06,16,04,12.60
2010,05,06,16,05,12.70
2010,05,06,16,06,12.70
2010,05,06,16,07,12.80
2010,05,06,16,08,13.00
2010,05,06,16,09,13.10
2010,05,06,16,10,13.10
2010,05,06,16,11,13.20
2010,05,06,16,12,13.30
2010,05,06,16,13,13.30
2010,05,06,16,14,13.30
2010,05,06,16,15,13.30
2010,05,06,16,16,13.30
2010,05,06,16,17,13.20
2010,05,06,16,18,13.20
2010,05,06,16,19,13.20
2010,05,06,16,20,13.20
2010,05,06,16,21,13.20
2010,05,06,16,22,13.20
2010,05,06,16,23,13.30
2010,05,06,16,24,13.20
2010,05,06,16,25,13.20
2010,05,06,16,26,13.20
2010,05,06,16,27,13.30
2010,05,06,16,28,13.30
2010,05,06,16,29,13.30
2010,05,06,16,30,13.40
2010,05,06,16,31,13.40
2010,05,06,16,32,13.50
2010,05,06,16,33,13.50
2010,05,06,16,34,13.50
2010,05,06,16,35,13.40
2010,05,06,16,36,13.40
2010,05,06,16,37,13.30
2010,05,06,16,38,13.30
2010,05,06,16,39,13.20
2010,05,06,16,40,13.10
2010,05,06,16,41,13.10
2010,05,06,16,42,13.10
2010,05,06,16,43,13.10
2010,05,06,16,44,13.10
2010,05,06,16,45,13.20
2010,05,06,16,46,13.20
2010,05,06,16,47,13.30
2010,05,06,16,48,13.30
2010,05,06,16,49,13.30
2010,05,06,16,50,13.40
2010,05,06,16,51,13.40
2010,05,06,16,52,13.40
2010,05,06,16,53,13.30
2010,05,06,16,54,13.20
2010,05,06,16,55,13.20
2010,05,06,16,56,13.10
2010,05,06,16,57,13.00
2010,05,06,16,58,13.00
2010,05,06,16,59,13.00
2010,05,06,17,00,13.00
2010,05,06,17,01,13.10
2010,05,06,17,02,13.20
2010,05,06,17,03,13.20
2010,05,06,17,04,13.20
2010,05,06,17,05,13.30
2010,05,06,17,06,13.30
2010,05,06,17,07,13.30
2010,05,06,17,08,13.30
2010,05,06,17,09,13.30
2010,05,06,17,10,13.30
2010,05,06,17,11,13.30
2010,05,06,17,12,13.20
2010,05,06,17,13,13.20
2010,05,06,17,14,13.10
2010,05,06,17,15,13.10
2010,05,06,17,16,13.10
2010,05,06,17,17,13.00
2010,05,06,17,18,13.00
2010,05,06,17,19,13.00
2010,05,06,17,20,13.00
2010,05,06,17,21,12.90
2010,05,06,17,22,12.90
2010,05,06,17,23,12.90
2010,05,06,17,24,12.90
2010,05,06,17,25,12.90
2010,05,06,17,26,12.90
2010,05,06,17,27,12.90
2010,05,06,17,28,12.90
2010,05,06,17,29,12.90
2010,05,06,17,30,12.90
2010,05,06,17,31,12.90
2010,05,06,17,32,12.90
2010,05,06,17,33,12.90
2010,05,06,17,34,12.90
2010,05,06,17,35,12.90
2010,05,06,17,36,13.00
2010,05,06,17,37,13.00
2010,05,06,17,38,13.00
2010,05,06,17,39,13.10
2010,05,06,17,40,13.10
2010,05,06,17,41,13.10
2010,05,06,17,42,13.10
2010,05,06,17,43,13.10
2010,05,06,17,44,13.10